Content
SEND FEEDBACK

Daily
Averages
Monthly
Summary
United States of America

MUSKEGON, MICHIGAN


Home > North America > United States > Michigan
Elevation: 628 feet     Latitude: 43 10N     Longitude: 086 14W

WEATHER
 
SELECT A DAY
Number of Records: 223,604;   Date Range: 1/1/95 - 10/31/14
 
SHARE

PRINT THIS DATA

[ ← Previous Day ]
WEATHER ALMANAC - JANUARY 31, 2013
[ Next Day → ]
[ °C ]   °F
Weather ElementAverageHighLow
Temperature19.6 °F24.8 °F (12:11 am)17.1 °F (7:55 pm)
Dewpoint12.2 °F17.6 °F (12:11 am)10 °F (1:55 pm)
Humidity73.2 %86 % (7:17 am)63 % (4:21 am)
Barometer29.69 in29.96 in (11:55 pm)29.41 in (12:11 am)
Wind Speed16.3 mph25.3 mph (4:34 am)
Wind Gust38 mph (4:34 am)
Weather ElementAverage
Visibility1.7 mi
Wind DirectionWNW (291.6 °)

Weather ElementTotal
Precipitation0.19 in
Heating Degree Days44.1 (Base 65)
Averaged from 95 records on January 31, 2013
WEATHER CONDITIONS BREAKOUT
WIND DIRECTION BREAKOUT
WEATHER BY HOUR - JANUARY 31, 2013
[ °C ]   °F
Local TimeTemperatureDewpointHumidityBarometerVisibilityWind DirectionWind SpeedGust SpeedPrecipitationEventsConditions
12:11 AM24.8 °F17.6 °F74 %29.41 in2.5 miWNW (300°)17.3 mph29.9 mph0.00 inSnowLight Snow
12:19 AM24.8 °F15.8 °F69 %29.41 in3.0 miWNW (300°)19.6 mph27.6 mph0.00 inSnowLight Snow
12:35 AM24.8 °F15.8 °F69 %29.42 in2.5 miWNW (300°)17.3 mph27.6 mph0.00 inSnowLight Snow
12:55 AM24.1 °F15.1 °F69 %29.45 in3.0 miWNW (300°)20.7 mph31.1 mph0.00 inSnowLight Snow
1:29 AM23.0 °F15.8 °F74 %29.45 in2.5 miWNW (290°)17.3 mph29.9 mph0.00 inSnowLight Snow
1:36 AM23.0 °F14.0 °F68 %29.45 in5.0 miWNW (300°)18.4 mph28.8 mph0.00 inSnowLight Snow
1:55 AM23.0 °F14.0 °F68 %29.48 in6.0 miWNW (300°)18.4 mph28.8 mph0.00 inSnowLight Snow
2:55 AM23.0 °F12.9 °F65 %29.52 in5.0 miWNW (290°)18.4 mph27.6 mph0.00 inSnowLight Snow
3:02 AM21.2 °F14.0 °F74 %29.50 in1.8 miWNW (290°)20.7 mph32.2 mph0.00 inSnowLight Snow
3:09 AM21.2 °F14.0 °F74 %29.50 in1.5 miWNW (290°)21.9 mph33.4 mph0.00 inSnowLight Snow
3:20 AM21.2 °F14.0 °F74 %29.50 in2.0 miWNW (290°)18.4 mph32.2 mph0.00 inSnowLight Snow
3:27 AM21.2 °F14.0 °F74 %29.51 in2.0 miWNW (290°)20.7 mph31.1 mph0.00 inSnowLight Snow
3:34 AM21.2 °F15.8 °F80 %29.51 in1.2 miWNW (290°)19.6 mph34.5 mph0.00 inSnowLight Snow
3:42 AM21.2 °F14.0 °F74 %29.51 in3.0 miWNW (290°)20.7 mph29.9 mph0.00 inSnowLight Snow
3:53 AM21.2 °F14.0 °F74 %29.51 in2.0 miWNW (290°)18.4 mph33.4 mph0.00 inSnowLight Snow
3:55 AM21.9 °F14.0 °F72 %29.54 in1.8 miWNW (290°)18.4 mph33.4 mph0.00 inSnowLight Snow
4:01 AM21.2 °F14.0 °F74 %29.52 in2.0 miWNW (300°)23.0 mph33.4 mph0.00 inSnowLight Snow
4:12 AM21.2 °F12.2 °F68 %29.52 in2.5 miWNW (300°)19.6 mph29.9 mph0.00 inSnowLight Snow
4:21 AM21.2 °F10.4 °F63 %29.52 in4.0 miWNW (300°)20.7 mph32.2 mph0.00 inSnowLight Snow
4:34 AM21.2 °F12.2 °F68 %29.52 in2.0 miWest (280°)25.3 mph38.0 mph0.00 inSnowLight Snow
4:42 AM21.2 °F12.2 °F68 %29.53 in1.2 miWNW (290°)24.2 mph38.0 mph0.00 inSnowLight Snow
4:55 AM21.9 °F12.0 °F66 %29.56 in3.0 miWNW (290°)19.6 mph29.9 mph0.00 inSnowLight Snow
5:35 AM21.2 °F12.2 °F68 %29.55 in2.5 miWNW (290°)19.6 mph31.1 mph0.00 inSnowLight Snow
5:40 AM21.2 °F10.4 °F63 %29.55 in4.0 miWNW (290°)19.6 mph26.5 mph0.00 inSnowLight Snow
5:55 AM21.9 °F10.9 °F63 %29.59 in7.0 miWNW (300°)17.3 mph28.8 mph0.00 inSnowLight Snow
6:02 AM21.2 °F10.4 °F63 %29.56 in7.0 miWNW (290°)18.4 mph25.3 mph0.00 inSnowLight Snow
6:10 AM21.2 °F10.4 °F63 %29.57 in8.0 miWNW (290°)19.6 mph28.8 mph0.00 inSnowLight Snow
6:55 AM21.0 °F12.0 °F68 %29.60 in5.0 miWest (280°)15.0 mph24.2 mph0.00 inSnowLight Snow
7:02 AM21.2 °F12.2 °F68 %29.58 in3.0 miWest (280°)19.6 mph27.6 mph0.00 inSnowLight Snow
7:05 AM19.4 °F12.2 °F74 %29.58 in1.8 miWest (280°)20.7 mph28.8 mph0.00 inSnowLight Snow
7:17 AM19.4 °F15.8 °F86 %29.59 in0.5 miWNW (290°)17.3 mph27.6 mph0.00 inSnowSnow
7:27 AM19.4 °F12.2 °F74 %29.60 in1.5 miWest (280°)18.4 mph31.1 mph0.00 inSnowLight Snow
7:39 AM19.4 °F12.2 °F74 %29.60 in3.0 miWest (280°)15.0 mph21.9 mph0.00 inSnowLight Snow
7:55 AM21.0 °F10.9 °F65 %29.63 in3.0 miWNW (290°)19.6 mph26.5 mph0.00 inSnowLight Snow
7:59 AM19.4 °F10.4 °F68 %29.60 in2.5 miWNW (290°)15.0 mph26.5 mph0.00 inSnowLight Snow
8:02 AM19.4 °F10.4 °F68 %29.61 in1.0 miWNW (290°)15.0 mph26.5 mph0.00 inSnowLight Snow
8:55 AM19.9 °F12.0 °F71 %29.66 in1.0 miWNW (300°)15.0 mph28.8 mph0.00 inSnowLight Snow
9:02 AM19.4 °F12.2 °F74 %29.64 in1.0 miWest (280°)16.1 mph27.6 mph0.00 inSnowLight Snow
9:09 AM19.4 °F10.4 °F68 %29.64 in2.0 miWest (280°)17.3 mph31.1 mph0.00 inSnowLight Snow
9:16 AM19.4 °F10.4 °F68 %29.65 in1.5 miWest (280°)18.4 mph31.1 mph0.00 inSnowLight Snow
9:52 AM19.4 °F12.2 °F74 %29.67 in0.5 miWNW (290°)16.1 mph24.2 mph0.00 inSnowSnow
9:55 AM19.0 °F12.9 °F77 %29.70 in0.5 miWest (280°)19.6 mph25.3 mph0.00 inSnowSnow
10:07 AM19.4 °F14.0 °F80 %29.67 in0.5 miWest (280°)16.1 mph24.2 mph0.00 inSnowSnow
10:39 AM19.4 °F12.2 °F74 %29.69 in0.5 miWest (280°)16.1 mph23.0 mph0.00 inSnowLight Snow
10:55 AM19.0 °F12.9 °F77 %29.72 in0.8 miWNW (290°)18.4 mph25.3 mph0.00 inSnowLight Snow
11:03 AM19.4 °F12.2 °F74 %29.70 in0.2 miWNW (290°)15.0 mph24.2 mph0.00 inSnowHeavy Snow
11:11 AM19.4 °F14.0 °F80 %29.70 in0.5 miWNW (290°)15.0 mph20.7 mph0.01 inSnowSnow
11:25 AM19.4 °F12.2 °F74 %29.71 in0.5 miWNW (290°)12.7 mph0.01 inSnowSnow
11:42 AM19.4 °F14.0 °F80 %29.71 in0.2 miWest (280°)16.1 mph24.2 mph0.01 inSnowHeavy Snow
11:55 AM18.0 °F12.9 °F81 %29.75 in0.2 miWest (270°)17.3 mph27.6 mph0.01 inSnowHeavy Snow
12:04 PM19.4 °F12.2 °F74 %29.72 in0.8 miWNW (290°)19.6 mph25.3 mph0.00 inSnowLight Snow
12:20 PM19.4 °F12.2 °F74 %29.72 in0.8 miWNW (300°)13.8 mph20.7 mph0.00 inSnowLight Snow
12:32 PM19.4 °F10.4 °F68 %29.72 in2.0 miWNW (300°)11.5 mph21.9 mph0.00 inSnowLight Snow
12:50 PM19.4 °F12.2 °F74 %29.72 in0.5 miWNW (290°)18.4 mph24.2 mph0.00 inSnowSnow
12:55 PM19.0 °F10.9 °F71 %29.75 in0.5 miWNW (290°)12.7 mph24.2 mph0.00 inSnowSnow
1:06 PM19.4 °F10.4 °F68 %29.73 in1.0 miWest (280°)13.8 mph23.0 mph0.00 inSnowLight Snow
1:44 PM19.4 °F12.2 °F74 %29.74 in0.5 miWNW (290°)16.1 mph26.5 mph0.00 inSnowSnow
1:55 PM19.9 °F10.0 °F65 %29.77 in1.0 miWNW (300°)13.8 mph0.00 inSnowLight Snow
2:22 PM19.4 °F10.4 °F68 %29.75 in1.0 miWNW (300°)11.5 mph0.00 inSnowLight Snow
2:29 PM19.4 °F12.2 °F74 %29.75 in0.8 miWNW (290°)11.5 mph0.00 inSnowLight Snow
2:37 PM19.4 °F10.4 °F68 %29.76 in1.0 miWest (280°)12.7 mph0.01 inSnowLight Snow
2:55 PM19.0 °F12.0 °F74 %29.79 in0.8 miWest (280°)15.0 mph23.0 mph0.01 inSnowLight Snow
3:24 PM19.4 °F10.4 °F68 %29.77 in1.0 miWNW (300°)15.0 mph0.00 inSnowLight Snow
3:42 PM19.4 °F10.4 °F68 %29.77 in2.0 miWNW (290°)13.8 mph23.0 mph0.00 inSnowLight Snow
3:55 PM18.0 °F10.9 °F74 %29.81 in1.0 miWest (280°)17.3 mph24.2 mph0.00 inSnowLight Snow
3:59 PM17.6 °F12.2 °F79 %29.78 in0.5 miWest (270°)15.0 mph24.2 mph0.00 inSnowSnow
4:18 PM17.6 °F12.2 °F79 %29.79 in0.2 miWest (280°)15.0 mph21.9 mph0.00 inSnowHeavy Snow
4:26 PM17.6 °F12.2 °F79 %29.79 in0.5 miWest (280°)17.3 mph21.9 mph0.00 inSnowSnow
4:37 PM17.6 °F12.2 °F79 %29.79 in0.5 miWNW (300°)15.0 mph23.0 mph0.01 inSnowSnow
4:55 PM18.0 °F12.0 °F78 %29.83 in0.5 miWest (280°)15.0 mph21.9 mph0.02 inSnowSnow
5:08 PM17.6 °F12.2 °F79 %29.79 in0.5 miWNW (290°)15.0 mph19.6 mph0.00 inSnowSnow
5:16 PM17.6 °F12.2 °F79 %29.80 in0.2 miWest (280°)19.6 mph27.6 mph0.00 inSnowHeavy Snow
5:27 PM17.6 °F12.2 °F79 %29.80 in0.5 miWest (280°)11.5 mph0.00 inSnowSnow
5:41 PM17.6 °F10.4 °F73 %29.81 in0.8 miWNW (300°)13.8 mph21.9 mph0.00 inSnowLight Snow
5:55 PM18.0 °F10.0 °F71 %29.84 in0.8 miWest (280°)12.7 mph23.0 mph0.01 inSnowLight Snow
6:02 PM17.6 °F10.4 °F73 %29.81 in1.0 miWNW (290°)13.8 mph0.00 inSnowLight Snow
6:55 PM18.0 °F10.0 °F71 %29.87 in1.0 miNW (310°)10.4 mph17.3 mph0.00 inSnowLight Snow
7:16 PM17.6 °F12.2 °F79 %29.85 in1.0 miWNW (290°)15.0 mph24.2 mph0.00 inSnowLight Snow
7:32 PM17.6 °F10.4 °F73 %29.85 in1.0 miWNW (290°)15.0 mph21.9 mph0.00 inSnowLight Snow
7:40 PM17.6 °F10.4 °F73 %29.86 in1.0 miWNW (300°)12.7 mph24.2 mph0.00 inSnowLight Snow
7:55 PM17.1 °F10.9 °F77 %29.90 in1.0 miWNW (300°)12.7 mph0.00 inSnowLight Snow
8:17 PM17.6 °F10.4 °F73 %29.87 in1.0 miWNW (300°)10.4 mph20.7 mph0.00 inSnowLight Snow
8:55 PM17.1 °F12.0 °F81 %29.92 in0.8 miWNW (300°)13.8 mph24.2 mph0.00 inSnowLight Snow
9:16 PM17.6 °F12.2 °F79 %29.88 in1.0 miNW (310°)11.5 mph0.01 inSnowLight Snow
9:31 PM17.6 °F12.2 °F79 %29.89 in1.0 miWNW (300°)11.5 mph19.6 mph0.01 inSnowLight Snow
9:55 PM18.0 °F12.0 °F78 %29.93 in1.0 miWNW (300°)12.7 mph20.7 mph0.01 inSnowLight Snow
10:05 PM17.6 °F12.2 °F79 %29.90 in0.8 miWNW (300°)11.5 mph21.9 mph0.01 inSnowLight Snow
10:14 PM17.6 °F10.4 °F73 %29.90 in1.0 miWNW (300°)9.2 mph19.6 mph0.01 inSnowLight Snow
10:21 PM17.6 °F12.2 °F79 %29.90 in1.0 miNW (310°)16.1 mph21.9 mph0.01 inSnowLight Snow
10:35 PM17.6 °F12.2 °F79 %29.91 in0.8 miWNW (300°)12.7 mph27.6 mph0.01 inSnowLight Snow
10:40 PM17.6 °F12.2 °F79 %29.91 in1.0 miWNW (300°)15.0 mph24.2 mph0.01 inSnowLight Snow
10:55 PM18.0 °F12.0 °F78 %29.94 in1.5 miWNW (300°)13.8 mph20.7 mph0.01 inSnowLight Snow
11:29 PM17.6 °F12.2 °F79 %29.92 in0.8 miNW (310°)13.8 mph26.5 mph0.00 inSnowLight Snow
11:42 PM17.6 °F12.2 °F79 %29.92 in1.0 miNW (310°)13.8 mph26.5 mph0.00 inSnowLight Snow
11:55 PM18.0 °F12.0 °F78 %29.96 in1.2 miNW (320°)17.3 mph25.3 mph0.00 inSnowLight Snow
Hourly data recorded from KMKG, located miles away from Muskegon, Michigan







STORIES FROM OUR PARTNERS